When you browse on this site, cookies collect data to enhance your experience and personalize the content and advertising you see.
Visit our Privacy Policy to learn more. By continuing to use the site, you agree to this use of cookies and data.
  • In Portugal
  • List of Countries
  • For 7 days
  • Water Temperature
  • Satellite Maps
  • Weather Map
  • Weather Widgets
  • user-avatar
    Login

    Hourly Weather Gwozdzianka

    Today, 19 December, Wednesday

    Time Temperature Precipitation Wind Pressure Humidity
    00:00 -4°C° 0 mm 1 mps 741 mmHg 94%
    01:00 -4°C° 0 mm 1 mps 741 mmHg 94%
    02:00 -4°C° 0 mm 1 mps 741 mmHg 94%
    03:00 -4°C° 0 mm 1 mps 741 mmHg 94%
    04:00 -6°C° 0 mm 1 mps 741 mmHg 94%
    05:00 -6°C° 0 mm 1 mps 741 mmHg 93%
    06:00 -7°C° 0 mm 2 mps 741 mmHg 93%
    07:00 -7°C° 0 mm 2 mps 740 mmHg 92%
    08:00 -6°C° 0 mm 2 mps 740 mmHg 89%
    09:00 -6°C° 0 mm 2 mps 740 mmHg 86%
    10:00 -6°C° 0 mm 3 mps 740 mmHg 83%
    11:00 -5°C° 0 mm 3 mps 740 mmHg 82%
    12:00 -4°C° 0 mm 3 mps 740 mmHg 81%
    13:00 -4°C° 0 mm 3 mps 739 mmHg 80%
    14:00 -5°C° 0 mm 3 mps 739 mmHg 83%
    15:00 -6°C° 0 mm 3 mps 739 mmHg 86%
    16:00 -6°C° 0 mm 3 mps 739 mmHg 89%
    17:00 -7°C° 0 mm 3 mps 739 mmHg 89%
    18:00 -7°C° 0 mm 3 mps 738 mmHg 89%
    19:00 -7°C° 0 mm 3 mps 738 mmHg 90%
    20:00 -7°C° 0 mm 3 mps 738 mmHg 89%
    21:00 -7°C° 0 mm 3 mps 738 mmHg 88%
    22:00 -7°C° 0 mm 3 mps 738 mmHg 87%
    23:00 -7°C° 0 mm 3 mps 738 mmHg 86%

    Tomorrow, 20 December, Thursday

    Time Temperature Precipitation Wind Pressure Humidity
    00:00 -7°C° 0 mm 3 mps 738 mmHg 85%
    01:00 -7°C° 0 mm 3 mps 738 mmHg 84%
    02:00 -7°C° 0 mm 3 mps 737 mmHg 83%
    03:00 -7°C° 0 mm 3 mps 737 mmHg 82%
    04:00 -7°C° 0 mm 4 mps 737 mmHg 82%
    05:00 -7°C° 0 mm 4 mps 737 mmHg 82%
    06:00 -7°C° 0 mm 4 mps 737 mmHg 82%
    07:00 -7°C° 0 mm 4 mps 737 mmHg 82%
    08:00 -5°C° 0 mm 4 mps 737 mmHg 80%
    09:00 -4°C° 0 mm 4 mps 737 mmHg 79%
    10:00 -3°C° 0 mm 4 mps 737 mmHg 77%
    11:00 -3°C° 0 mm 4 mps 736 mmHg 77%
    12:00 -3°C° 0 mm 4 mps 736 mmHg 78%
    13:00 -2°C° 0 mm 4 mps 736 mmHg 78%
    14:00 -3°C° 0.3 mm 4 mps 736 mmHg 82%
    15:00 -3°C° 0.3 mm 4 mps 736 mmHg 86%
    16:00 -4°C° 0.3 mm 3 mps 736 mmHg 90%
    17:00 -4°C° 0.2 mm 3 mps 736 mmHg 90%
    18:00 -4°C° 0.2 mm 3 mps 736 mmHg 90%
    19:00 -4°C° 0.2 mm 3 mps 736 mmHg 90%
    20:00 -4°C° 0.1 mm 4 mps 736 mmHg 90%
    21:00 -4°C° 0.1 mm 4 mps 736 mmHg 90%
    22:00 -4°C° 0.1 mm 4 mps 736 mmHg 90%
    23:00 -3°C° 0.1 mm 4 mps 736 mmHg 89%

    Day after tomorrow, 21 December, Friday

    Time Temperature Precipitation Wind Pressure Humidity
    00:00 -3°C° 0.1 mm 4 mps 736 mmHg 89%
    01:00 -3°C° 0.1 mm 4 mps 736 mmHg 89%
    02:00 -3°C° 0.1 mm 4 mps 736 mmHg 89%
    03:00 -3°C° 0.1 mm 4 mps 736 mmHg 89%
    04:00 -3°C° 0.1 mm 4 mps 736 mmHg 90%
    05:00 -3°C° 0 mm 4 mps 736 mmHg 89%
    06:00 -3°C° 0 mm 4 mps 736 mmHg 89%
    07:00 -3°C° 0 mm 4 mps 736 mmHg 89%
    08:00 -3°C° 0 mm 4 mps 736 mmHg 88%
    09:00 -2°C° 0 mm 5 mps 736 mmHg 87%
    10:00 -2°C° 0 mm 5 mps 736 mmHg 86%
    11:00 -2°C° 0 mm 5 mps 735 mmHg 87%
    12:00 -2°C° 0 mm 5 mps 735 mmHg 87%
    13:00 -1°C° 0 mm 5 mps 735 mmHg 87%
    14:00 -2°C° 0 mm 5 mps 734 mmHg 87%
    15:00 -2°C° 0 mm 5 mps 734 mmHg 87%
    16:00 -2°C° 0 mm 5 mps 733 mmHg 87%
    17:00 -3°C° 0.2 mm 6 mps 733 mmHg 87%
    18:00 -3°C° 0.2 mm 6 mps 732 mmHg 87%
    19:00 -3°C° 0.2 mm 6 mps 732 mmHg 87%
    20:00 -3°C° 0.4 mm 7 mps 731 mmHg 87%
    21:00 -2°C° 0.4 mm 7 mps 731 mmHg 86%
    22:00 -2°C° 0.4 mm 7 mps 730 mmHg 86%
    23:00 -2°C° 0.7 mm 7 mps 730 mmHg 87%

    22 December, Saturday

    Time Temperature Precipitation Wind Pressure Humidity
    00:00 -2°C° 0.7 mm 7 mps 729 mmHg 87%
    01:00 -2°C° 0.7 mm 7 mps 728 mmHg 88%
    02:00 -2°C° 0.2 mm 6 mps 728 mmHg 89%
    03:00 -2°C° 0.2 mm 6 mps 728 mmHg 89%
    04:00 -2°C° 0.2 mm 6 mps 728 mmHg 90%
    05:00 -1°C° 0.2 mm 6 mps 728 mmHg 91%
    06:00 0°C° 0.2 mm 5 mps 728 mmHg 91%
    07:00 0°C° 0.2 mm 5 mps 728 mmHg 92%
    08:00 0°C° 0.1 mm 5 mps 728 mmHg 92%
    09:00 +1°C° 0.1 mm 5 mps 729 mmHg 92%
    10:00 +1°C° 0.1 mm 5 mps 729 mmHg 92%
    11:00 +1°C° 0 mm 5 mps 729 mmHg 92%
    12:00 +1°C° 0 mm 4 mps 729 mmHg 92%
    13:00 +1°C° 0 mm 4 mps 728 mmHg 92%
    14:00 +1°C° 0 mm 4 mps 728 mmHg 92%
    15:00 +1°C° 0 mm 4 mps 728 mmHg 91%
    16:00 +1°C° 0 mm 4 mps 728 mmHg 91%
    17:00 +1°C° 0.6 mm 5 mps 727 mmHg 91%
    18:00 +1°C° 0.6 mm 5 mps 727 mmHg 91%
    19:00 +1°C° 0.6 mm 5 mps 726 mmHg 92%
    20:00 +1°C° 0.3 mm 6 mps 726 mmHg 90%
    21:00 +2°C° 0.3 mm 6 mps 726 mmHg 89%
    22:00 +2°C° 0.3 mm 6 mps 726 mmHg 87%
    23:00 +2°C° 0 mm 6 mps 726 mmHg 87%

    23 December, Sunday

    Time Temperature Precipitation Wind Pressure Humidity
    00:00 +2°C° 0 mm 6 mps 727 mmHg 87%
    01:00 +2°C° 0 mm 6 mps 727 mmHg 87%
    02:00 +1°C° 0 mm 6 mps 728 mmHg 88%
    03:00 +1°C° 0 mm 6 mps 728 mmHg 88%
    04:00 +1°C° 0 mm 6 mps 728 mmHg 88%
    05:00 +1°C° 0 mm 6 mps 729 mmHg 88%
    06:00 +1°C° 0 mm 6 mps 729 mmHg 88%
    07:00 +1°C° 0 mm 6 mps 729 mmHg 88%
    08:00 +1°C° 0.1 mm 6 mps 729 mmHg 87%
    09:00 +1°C° 0.1 mm 6 mps 730 mmHg 86%
    10:00 +2°C° 0.1 mm 6 mps 730 mmHg 84%
    11:00 +2°C° 0.1 mm 6 mps 730 mmHg 84%
    12:00 +2°C° 0.1 mm 6 mps 730 mmHg 84%
    13:00 +2°C° 0.1 mm 6 mps 730 mmHg 83%
    14:00 +2°C° 0.1 mm 6 mps 731 mmHg 84%
    15:00 +2°C° 0.1 mm 6 mps 731 mmHg 85%
    16:00 +1°C° 0.1 mm 5 mps 731 mmHg 85%
    17:00 +1°C° 0 mm 5 mps 731 mmHg 86%
    18:00 +1°C° 0 mm 5 mps 731 mmHg 86%
    19:00 +1°C° 0 mm 5 mps 732 mmHg 87%
    20:00 +1°C° 0 mm 5 mps 732 mmHg 87%
    21:00 +1°C° 0 mm 6 mps 732 mmHg 86%
    22:00 +1°C° 0 mm 6 mps 732 mmHg 86%
    23:00 0°C° 0 mm 5 mps 732 mmHg 86%

    24 December, Monday

    Time Temperature Precipitation Wind Pressure Humidity
    00:00 0°C° 0 mm 5 mps 732 mmHg 86%
    01:00 0°C° 0 mm 5 mps 732 mmHg 86%
    02:00 0°C° 0 mm 5 mps 732 mmHg 86%
    03:00 0°C° 0 mm 5 mps 732 mmHg 86%
    04:00 -1°C° 0 mm 6 mps 731 mmHg 86%
    05:00 -1°C° 0.1 mm 6 mps 732 mmHg 86%
    06:00 -1°C° 0.1 mm 6 mps 732 mmHg 85%
    07:00 -1°C° 0.1 mm 6 mps 732 mmHg 85%
    08:00 -1°C° 0.1 mm 6 mps 732 mmHg 85%
    09:00 -1°C° 0.1 mm 6 mps 733 mmHg 84%
    10:00 -1°C° 0.1 mm 6 mps 733 mmHg 84%
    11:00 0°C° 0.1 mm 5 mps 733 mmHg 83%
    12:00 +1°C° 0.1 mm 5 mps 733 mmHg 81%
    13:00 +1°C° 0.1 mm 4 mps 734 mmHg 80%
    14:00 +1°C° 0 mm 3 mps 734 mmHg 83%
    15:00 +1°C° 0 mm 3 mps 734 mmHg 85%
    16:00 +1°C° 0 mm 2 mps 734 mmHg 88%
    17:00 +1°C° 0.1 mm 2 mps 734 mmHg 89%
    18:00 +1°C° 0.1 mm 2 mps 734 mmHg 90%
    19:00 0°C° 0.1 mm 3 mps 735 mmHg 92%
    20:00 0°C° 0.1 mm 3 mps 735 mmHg 92%
    21:00 0°C° 0.1 mm 3 mps 735 mmHg 91%
    22:00 0°C° 0.1 mm 3 mps 735 mmHg 91%
    23:00 0°C° 0.1 mm 3 mps 735 mmHg 91%
    Show more